Location: Perryvale
(54.4667°N, 113.3833°W)
Time: 22:25:40
(UTC+00:00)

Vanguard 1 Rocket - Pass Details

Date: 23 May 2024
Orbit: 649 x 4221 km, 34.3° (Epoch: 13 June)

Event Time Altitude Azimuth Distance (km) Brightness Sun altitude
Rises 19:54:21 0° 257° (WSW) 7,035 12.1 56.0°
Reaches altitude 10° 20:00:56 10° 246° (WSW) 5,333 11.7 55.8°
Maximum altitude 20:10:45 23° 202° (SSW) 3,220 11.3 55.5°
Drops below altitude 10° 20:17:08 10° 154° (SSE) 3,320 10.8 55.2°
Sets 20:20:04 0° 139° (SE) 3,917 10.9 55.0°
